Location: ???????
(54.9567°N, 38.2836°E)
Time: 04:35:09
(UTC+00:00)

Envisat - Visible Passes

Search period start: 25 July 2024 00:00
Search period end: 04 August 2024 00:00
Orbit: 762 x 764 km, 98.3° (Epoch: 24 July)

Date Brightness Start Highest point End Pass type
(mag) Time Alt. Az. Time Alt. Az. Time Alt. Az.
25 Jul 4.3 00:12:51 10° NNE 00:17:36 38° E 00:22:20 10° SSE visible
25 Jul 5.2 23:36:02 10° NE 23:39:51 21° E 23:43:37 10° SE visible
26 Jul 5.7 23:00:42 10° ENE 23:01:50 11° E 23:03:00 10° E visible
27 Jul 3.6 00:36:54 10° NNE 00:41:56 58° E 00:46:56 10° S visible
27 Jul 4.6 23:59:47 10° NNE 00:04:18 31° E 00:08:47 10° SSE visible
28 Jul 5.4 23:23:12 10° NE 23:26:27 17° E 23:29:40 10° SE visible
30 Jul 4.0 00:23:45 10° NNE 00:28:40 46° E 00:33:33 10° S visible
30 Jul 4.9 23:46:46 10° NE 23:50:57 25° E 23:55:07 10° SE visible
31 Jul 5.5 23:10:36 10° NE 23:13:01 13° E 23:15:27 10° ESE visible
01 Aug 3.3 00:47:51 10° NNE 00:52:57 71° ESE 00:58:00 10° S visible
02 Aug 4.3 00:10:38 10° NNE 00:15:21 37° E 00:20:03 10° SSE visible
02 Aug 5.2 23:33:49 10° NE 23:37:34 20° E 23:41:18 10° SE visible
03 Aug 5.8 22:58:45 10° ENE 22:59:33 10° E 23:00:22 10° E visible
